TimeEDT,TemperatureF,Dew PointF,Humidity,Sea Level PressureIn,VisibilityMPH,Wind Direction,Wind SpeedMPH,Gust SpeedMPH,PrecipitationIn,Events,Conditions,WindDirDegrees,DateUTC
12:54 AM,60.1,51.1,72,29.82,10.0,ESE,10.4,-,0.00,Rain,Light Rain,120,2012-10-19 04:54:00
1:32 AM,57.2,53.6,88,29.87,6.0,WNW,6.9,-,0.04,Rain,Rain,300,2012-10-19 05:32:00
1:41 AM,55.4,53.6,94,29.88,2.5,WNW,16.1,20.7,0.08,Rain,Heavy Rain,290,2012-10-19 05:41:00
1:49 AM,53.6,51.8,94,29.89,1.5,WNW,20.7,27.6,0.21,Rain,Heavy Rain,290,2012-10-19 05:49:00
1:54 AM,53.1,51.1,93,29.88,2.0,WNW,18.4,-,0.27,Rain,Heavy Rain,300,2012-10-19 05:54:00
1:59 AM,53.6,50.0,88,29.90,3.0,West,17.3,27.6,0.02,Rain,Heavy Rain,280,2012-10-19 05:59:00
2:15 AM,51.8,50.0,94,29.91,6.0,WNW,8.1,-,0.08,Rain,Rain,300,2012-10-19 06:15:00
2:31 AM,51.8,50.0,94,29.91,6.0,WNW,11.5,-,0.12,Rain,Rain,300,2012-10-19 06:31:00
2:54 AM,52.0,50.0,93,29.89,8.0,NNW,8.1,-,0.15,Rain,Rain,340,2012-10-19 06:54:00
3:54 AM,52.0,50.0,93,29.86,6.0,East,9.2,-,0.02,Rain,Light Rain,100,2012-10-19 07:54:00
4:18 AM,51.8,50.0,94,29.86,10.0,East,6.9,-,0.06,Rain,Light Rain,90,2012-10-19 08:18:00
4:54 AM,51.1,50.0,96,29.83,10.0,ESE,8.1,-,0.06,,Scattered Clouds,110,2012-10-19 08:54:00
5:05 AM,51.8,50.0,94,29.82,10.0,ESE,8.1,-,N/A,,Partly Cloudy,110,2012-10-19 09:05:00
5:31 AM,51.8,50.0,94,29.82,10.0,East,5.8,-,N/A,,Mostly Cloudy,100,2012-10-19 09:31:00
5:39 AM,51.8,50.0,94,29.83,10.0,ESE,5.8,-,N/A,,Mostly Cloudy,110,2012-10-19 09:39:00
5:54 AM,52.0,50.0,93,29.81,10.0,ESE,6.9,-,N/A,,Overcast,110,2012-10-19 09:54:00
6:20 AM,51.8,50.0,94,29.83,10.0,ESE,8.1,-,N/A,,Overcast,110,2012-10-19 10:20:00
6:54 AM,52.0,51.1,97,29.81,10.0,East,3.5,-,0.00,Rain,Light Rain,100,2012-10-19 10:54:00
7:37 AM,51.8,51.8,100,29.81,10.0,ESE,4.6,-,0.01,Rain,Light Rain,110,2012-10-19 11:37:00
7:54 AM,52.0,51.1,97,29.79,4.0,East,6.9,-,0.02,Rain,Light Rain,90,2012-10-19 11:54:00
8:54 AM,53.1,52.0,96,29.80,10.0,ESE,3.5,-,0.02,Rain,Light Rain,120,2012-10-19 12:54:00
9:35 AM,53.6,51.8,94,29.81,2.0,East,3.5,-,0.08,Rain,Heavy Rain,80,2012-10-19 13:35:00
9:38 AM,53.6,51.8,94,29.81,1.8,ENE,3.5,-,0.10,Rain,Heavy Rain,70,2012-10-19 13:38:00
9:54 AM,53.1,52.0,96,29.80,2.0,Calm,Calm,-,0.17,Rain,Heavy Rain,0,2012-10-19 13:54:00
10:05 AM,53.6,53.6,100,29.81,3.0,Calm,Calm,-,0.03,Rain,Rain,0,2012-10-19 14:05:00
10:54 AM,54.0,54.0,100,29.79,6.0,SE,5.8,-,0.09,Rain,Rain,140,2012-10-19 14:54:00
11:50 AM,55.4,55.4,100,29.72,10.0,East,6.9,-,0.03,Rain,Light Rain,80,2012-10-19 15:50:00
11:54 AM,57.0,57.0,100,29.72,9.0,East,8.1,-,0.04,Rain,Light Rain,90,2012-10-19 15:54:00
12:17 PM,57.2,57.2,100,29.73,10.0,Calm,Calm,-,0.00,,Overcast,0,2012-10-19 16:17:00
12:38 PM,59.0,59.0,100,29.73,10.0,ESE,4.6,-,0.00,,Mostly Cloudy,110,2012-10-19 16:38:00
12:54 PM,59.0,57.9,96,29.71,10.0,East,6.9,-,0.00,,Mostly Cloudy,90,2012-10-19 16:54:00
1:54 PM,63.0,57.9,84,29.69,10.0,Calm,Calm,-,N/A,,Mostly Cloudy,0,2012-10-19 17:54:00
2:12 PM,64.4,57.2,77,29.70,10.0,East,9.2,-,N/A,,Mostly Cloudy,80,2012-10-19 18:12:00
2:33 PM,62.6,57.2,82,29.69,10.0,East,6.9,-,N/A,,Mostly Cloudy,80,2012-10-19 18:33:00
2:54 PM,63.0,57.0,81,29.67,10.0,East,6.9,-,N/A,,Mostly Cloudy,80,2012-10-19 18:54:00
3:54 PM,64.9,57.9,78,29.65,10.0,East,8.1,-,N/A,,Mostly Cloudy,80,2012-10-19 19:54:00
4:54 PM,64.9,57.9,78,29.64,10.0,NE,6.9,-,N/A,,Mostly Cloudy,50,2012-10-19 20:54:00
5:54 PM,62.1,57.0,84,29.63,10.0,Calm,Calm,-,N/A,,Scattered Clouds,0,2012-10-19 21:54:00
6:54 PM,59.0,57.0,93,29.63,10.0,Calm,Calm,-,N/A,,Scattered Clouds,0,2012-10-19 22:54:00
7:51 PM,57.2,55.4,94,29.63,9.0,Calm,Calm,-,N/A,,Mostly Cloudy,0,2012-10-19 23:51:00
7:54 PM,57.0,55.9,96,29.62,7.0,East,3.5,-,N/A,Fog,Patches of Fog,100,2012-10-19 23:54:00
7:59 PM,57.2,55.4,94,29.62,7.0,East,4.6,-,N/A,Fog,Patches of Fog,90,2012-10-19 23:59:00
8:06 PM,57.2,57.2,100,29.62,2.5,ESE,3.5,-,N/A,,Mostly Cloudy,110,2012-10-20 00:06:00
8:10 PM,57.2,55.4,94,29.62,1.5,East,4.6,-,N/A,,Mostly Cloudy,90,2012-10-20 00:10:00
8:39 PM,57.2,57.2,100,29.62,0.2,ESE,3.5,-,N/A,,Overcast,120,2012-10-20 00:39:00
8:54 PM,57.0,57.0,100,29.62,0.2,East,4.6,-,N/A,Fog,Fog,100,2012-10-20 00:54:00
9:02 PM,57.2,55.4,94,29.62,0.2,East,5.8,-,N/A,Fog,Fog,100,2012-10-20 01:02:00
9:15 PM,57.2,55.4,94,29.63,0.2,ESE,4.6,-,N/A,Fog,Fog,110,2012-10-20 01:15:00
9:37 PM,55.4,55.4,100,29.63,3.0,ESE,4.6,-,N/A,,Overcast,120,2012-10-20 01:37:00
9:42 PM,55.4,55.4,100,29.62,4.0,ESE,4.6,-,N/A,,Mostly Cloudy,120,2012-10-20 01:42:00
9:54 PM,55.9,55.0,97,29.61,5.0,East,3.5,-,N/A,,Mostly Cloudy,90,2012-10-20 01:54:00
10:54 PM,55.9,55.0,97,29.60,9.0,ESE,5.8,-,N/A,Fog,Patches of Fog,110,2012-10-20 02:54:00
11:54 PM,55.9,55.0,97,29.60,10.0,ESE,5.8,-,0.00,,Overcast,120,2012-10-20 03:54:00